Back to catalog

JCSAT 15

AliveCommunicationsGEO
NORAD 41903·PAYLOAD·🇯🇵 Japan

Launched Dec 21, 2016 from Guiana Space Centre

Loading…

TLE

FreshSource: Space-Track

Epoch: Sep 14, 2026, 14:19 UTC

1 41903U 16082A   26257.59694110 -.00000359  00000-0  00000-0 0  9999
2 41903   0.0183 155.4421 0000605  15.4771 147.6262  1.00271519 35652

Track JCSAT 15 in real time with AllMySat

Download on the App Store